Regional Weather Roundup
Issued by NWS

Home | Current Version | Previous Version | Text Only | Print | Product List | Glossary On
Versions: 1 2 3 4 5 6 7 8 9 10 11 12 13 14 15 16 17 18 19 20 21 22 23 24 25 26 27 28 29 30 31 32 33 34 35 36 37 38 39 40 41 42 43 44 45 46 47 48 49 50
000
ASUS44 KJAN 070410
RWRMS

MISSISSIPPI HOURLY WEATHER ROUNDUP
NATIONAL WEATHER SERVICE JACKSON MS
1000 PM CST SAT FEB 06 2016

NOTE: "FAIR: INDICATES FEW OR NO CLOUDS BELOW 12,000 FEET WITH NO
SIGNIFICANT WEATHER AND/OR OBSTRUCTIONS TO VISIBILITY.

MSZ001>002-007>008-010>013-018>021-025>028-034>036-070500-
NORTHWEST MISSISSIPPI

CITY           SKY/WX    TMP DP  RH WIND       PRES   REMARKS
CLEVELAND      FAIR      40  32  75 CALM      30.32S
GREENWOOD      CLEAR     34  27  75 CALM      30.33S
GREENVILLE     CLEAR     40  30  67 W3        30.32F
OLIVE BRANCH   CLEAR     36  28  75 CALM      30.31F
OXFORD         FAIR      32  25  74 CALM      30.33S
TUNICA         CLEAR     34  32  93 CALM      30.33S
$$

MSZ003>006-009-014>017-022>024-029>033-037>039-070500-
NORTHEAST MISSISSIPPI

CITY           SKY/WX    TMP DP  RH WIND       PRES   REMARKS
COLUMBUS AFB   CLEAR     33  28  82 CALM      30.31S
CORINTH        FAIR      34  27  75 CALM      30.31R
GOLDN TRIANGLE CLEAR     37  25  60 CALM      30.30F
STARKVILLE     FAIR      32  27  80 CALM      30.32S
TUPELO         CLEAR     36  28  73 CALM      30.31F
$$

MSZ040-058-070500-
CENTRAL MISSISSIPPI

CITY           SKY/WX    TMP DP  RH WIND       PRES   REMARKS
JACKSON INTL   CLEAR     39  27  62 CALM      30.32R
JACKSON HAWKNS CLEAR     41  23  48 N3        30.32R
MERIDIAN KEY   CLEAR     32  26  78 CALM      30.30F
MERIDIAN NAS   CLEAR     35  24  64 NW5       30.30S WCI  31
VICKSBURG      CLEAR     37  30  75 CALM      30.34R
$$

MSZ059>079-070500-
SOUTH MISSISSIPPI

CITY           SKY/WX    TMP DP  RH WIND       PRES   REMARKS
BROOKHAVEN     FAIR      37  32  81 NW3       30.33S
HATTIESBURG    CLEAR     34  29  82 CALM      30.30S
MCCOMB         CLEAR     37  28  70 N5        30.31R WCI  33
NATCHEZ        CLEAR     39  25  56 CALM      30.32S
PINE BELT      CLEAR     39  19  45 N6        30.30S WCI  35
$$

MSZ080>082-070500-
COASTAL MISSISSIPPI

CITY           SKY/WX    TMP DP  RH WIND       PRES   REMARKS
BILOXI         MOCLDY    47  36  66 VRB1      30.27F
PASCAGOULA     PTCLDY    37  35  92 CALM      30.28S
GULFPORT       PTCLDY    42  34  73 CALM      30.28S
$$



USA.gov is the U.S. government's official web portal to all federal, state and local government web resources and services.